Home   Weather   Bristol   Past weeks

Flag for United Kingdom Past Weather in Bristol, England, United Kingdom — Yesterday and Last 2 Weeks

Now
45 °F

Partly sunny.


Feels Like: 40 °F
Forecast: 40 / 49 °F
Wind: 9 mph from West

Location: Bristol / Lulsgate

Current Time: Dec 11, 2016 at 10:14:17 am

Latest Report: Dec 11, 2016 at 9:20 am


Visibility: N/A

Pressure: 30.27 "Hg

Humidity: 100%

Dew Point: 45 °F

Location of BristolLocation

Past Weather in Bristol — Graph

°F

Bristol Temperature Yesterday

Maximum temperature yesterday: 54 °F (at 2:50 pm)
Minimum temperature yesterday: 41 °F (at 9:20 pm)
Average temperature yesterday: 49 °F

High & Low Weather Summary for the Past Weeks

 TemperatureHumidityPressure
High55 °F (Dec 7, 12:20 pm)100% (Nov 27, 4:50 am)30.57 "Hg (Nov 27, 4:50 am)
Low25 °F (Nov 29, 3:50 am)53% (Nov 28, 2:20 pm)29.59 "Hg (Dec 8, 3:50 pm)
Average42 °F90%30.28 "Hg
* Reported Nov 26 8:20 am — Dec 11 8:50 am, Bristol, Weather by CustomWeather, © 2016

Note: Actual official high and low records may vary slightly from our data, if they occured in-between our weather recording intervals... More about our weather records

Advertising

Bristol Weather History for the Previous 24 Hours

Scroll right to see more
 ConditionsComfort  
Time TempWeatherWind HumidityBarometerVisibility
8:50 am
Sun, Dec 11
45 °FCloudy.7 mph100%30.30 "HgN/A
8:20 am45 °FFog.7 mph100%30.27 "Hg3 mi
7:50 am43 °FFog.7 mph100%30.27 "Hg1 mi
7:20 am43 °FLow clouds.5 mph93%30.27 "Hg4 mi
6:50 am41 °FFog.5 mph100%30.24 "Hg0 mi
6:20 am41 °FFog.5 mph93%30.24 "Hg1 mi
5:50 am41 °FQuite cool.6 mph100%30.27 "HgN/A
5:20 am41 °FQuite cool.6 mph100%30.27 "HgN/A
4:50 am41 °FQuite cool.6 mph100%30.24 "Hg4 mi
4:20 am41 °FQuite cool.7 mph100%30.24 "HgN/A
3:50 am41 °FQuite cool.7 mph100%30.24 "HgN/A
3:20 am41 °FQuite cool.7 mph100%30.24 "HgN/A
2:50 am41 °FQuite cool.12 mph100%30.24 "HgN/A
2:20 am41 °FPassing clouds.12 mph100%30.24 "HgN/A
1:50 am43 °FFog.12 mph100%30.21 "Hg0 mi
1:20 am45 °FFog.14 mph100%30.21 "Hg1 mi
12:50 am45 °FPassing clouds.10 mph100%30.21 "Hg4 mi
12:20 am45 °FMostly cloudy.13 mph100%30.21 "HgN/A
11:50 pm
Sat, Dec 10
45 °FPassing clouds.12 mph93%30.18 "HgN/A
11:20 pm43 °FPassing clouds.12 mph100%30.18 "HgN/A
10:50 pm43 °FPartly cloudy.12 mph100%30.18 "HgN/A
10:20 pm43 °FQuite cool.8 mph93%30.18 "HgN/A
9:50 pm43 °FQuite cool.6 mph93%30.18 "HgN/A
9:20 pm41 °FQuite cool.6 mph93%30.15 "HgN/A
8:50 pm43 °FQuite cool.6 mph93%30.15 "HgN/A
8:20 pm45 °FQuite cool.8 mph93%30.15 "HgN/A
7:50 pm45 °FLight rain. Passing clouds.7 mph93%30.12 "HgN/A
7:20 pm45 °FLight rain. Passing clouds.12 mph100%30.12 "HgN/A
6:50 pm46 °FLight rain. Mostly cloudy.15 mph93%30.12 "Hg4 mi
6:20 pm48 °FDrizzle. Fog.17 mph100%30.09 "Hg1 mi
5:50 pm50 °FDrizzle. Fog.13 mph94%30.07 "Hg1 mi
5:20 pm50 °FRain. Dense fog.14 mph94%30.07 "Hg1 mi
4:50 pm52 °FDrizzle. Fog.13 mph100%30.04 "Hg1 mi
4:20 pm52 °FDrizzle. Low clouds.12 mph100%30.04 "Hg1 mi
3:50 pm52 °FDrizzle. Low clouds.12 mph100%30.04 "Hg1 mi
3:20 pm54 °FDrizzle. Fog.9 mph94%30.04 "Hg1 mi
2:50 pm54 °FDrizzle. Fog.8 mph94%30.07 "Hg1 mi
2:20 pm52 °FDrizzle. Fog.7 mph100%30.07 "Hg1 mi
1:50 pm52 °FRain. Low clouds.6 mph100%30.09 "Hg1 mi
1:20 pm52 °FHeavy rain. Low clouds.6 mph100%30.09 "Hg1 mi
12:50 pm52 °FDrizzle. Partly sunny.5 mph94%30.12 "Hg1 mi
12:20 pm50 °FScattered clouds.1 mph100%30.12 "Hg1 mi
11:50 am50 °FDrizzle. Partly sunny.2 mph100%30.12 "Hg1 mi
11:20 am50 °FDrizzle. Broken clouds.3 mph100%30.15 "Hg3 mi
10:50 am50 °FDrizzle. Mostly cloudy.5 mph100%30.15 "Hg2 mi
10:20 am50 °FDrizzle. Partly sunny.5 mph100%30.15 "Hg2 mi
Weather by CustomWeather, © 2016

See weather overviewHow to use our weather pages